Regional Weather Roundup
Issued by NWS

Home | Current Version | Previous Version | Text Only | Print | Product List | Glossary Off
Versions: 1 2 3 4 5 6 7 8 9 10 11 12 13 14 15 16 17 18 19 20 21 22 23 24 25 26 27 28 29 30 31 32 33 34 35 36 37 38 39 40 41 42 43 44 45 46 47 48 49 50

131
ASUS43 KLOT 262308
RWRIL

ILLINOIS REGIONAL WEATHER ROUNDUP
NATIONAL WEATHER SERVICE CHICAGO/ROMEOVILLE IL
600 PM CDT SUN MAR 26 2017

NOTE: "FAIR" INDICATES FEW OR NO CLOUDS BELOW 12,000 FEET WITH NO
SIGNIFICANT WEATHER AND/OR OBSTRUCTIONS TO VISIBILITY.

* THESE STATIONS ARE NOT UNDER NWS QUALITY CONTROL. THEY ALSO MAY NOT
  REPORT WEATHER SUCH AS PRECIPITATION OR FOG.

ILZ001-002-007-009-015-016-024-270000-
NORTHWEST ILLINOIS

CITY           SKY/WX    TMP DP  RH WIND       PRES   REMARKS
MOLINE         CLOUDY    52  49  89 W9        29.85R FOG
STERLING*      CLOUDY    54  52  93 VRB3      29.84R
SAVANNA*       CLOUDY    53  51  92 NW9       29.83R FOG
$$

ILZ003-004-008-010-011-017-018-270000-
NORTH CENTRAL ILLINOIS

CITY           SKY/WX    TMP DP  RH WIND       PRES   REMARKS
ROCKFORD       CLOUDY    56  52  86 CALM      29.84S
FREEPORT*      CLOUDY    55  53  94 CALM      29.83S
ROCHELLE*      CLOUDY    53  52  96 SW12      29.84R
DE KALB*       CLOUDY    53  52  96 SW7       29.84R FOG
PERU*          CLOUDY    51  49  90 SW13      29.86R FOG
$$

ILZ005-006-012>014-019>023-270000-
NORTHEAST ILLINOIS

CITY           SKY/WX    TMP DP  RH WIND       PRES   REMARKS
CHICAGO-OHARE  CLOUDY    58  51  78 W9        29.82R
CHICAGO-MIDWAY CLOUDY    57  51  80 SW8       29.83R
AURORA         CLOUDY    55  52  89 SW8       29.83R FOG
LANSING*       CLOUDY    56  52  85 SW12      29.84R
JOLIET*        CLOUDY    57  53  86 SW8       29.84S
WAUKEGAN       CLOUDY    48  47  96 E3        29.81S
DUPAGE AIRPORT CLOUDY    56  53  90 SW8       29.82R
KANKAKEE*      CLOUDY    56  51  80 SW13      29.86R
WHEELING       CLOUDY    57  53  86 SW7       29.83R
MORRIS*        CLOUDY    55  51  87 CALM      29.84R
ROMEOVILLE*    CLOUDY    54  54  97 SW9       29.84R
$$

LMZ740>746-270000-
SOUTHERN LAKE MICHIGAN

STATION/POSITION SKY/WX   TEMP    WIND        PRES    VSBY  WAVE
                          AIR SEA DIR/SP/G                  HT/PER
                          (F)     (DEG/KT/KT) (MB)    (MI)  (FT/S)
HARRISON CRIB              59     220/ 10/ 11   N/A
BURNHAM HARBOR             57     210/  4/ 12   N/A
CALUMET HARBOR             57     190/  8/ 13 1009.5R
BURNS HARBOR               56     260/ 12/ 16 1010.5R
MICHIGAN CITY              53      50/  2/  3   N/A
$$

ILZ025>027-034>036-040-047-049-050-058-095>099-270000-
WEST-CENTRAL ILLINOIS

CITY           SKY/WX    TMP DP  RH WIND       PRES   REMARKS
QUINCY         CLOUDY    51  45  79 W10       29.91R
GALESBURG*     CLOUDY    49  47  93 W8        29.87S
MACOMB*        CLOUDY    50  47  90 W13       29.92R
JACKSONVILLE*  CLOUDY    53  48  82 W8        29.91R
PITTSFIELD*    CLOUDY    54  48  81 SW12      29.92R
$$

ILZ028>032-037-038-041>044-048-051>054-059>061-270000-
CENTRAL ILLINOIS

CITY           SKY/WX    TMP DP  RH WIND       PRES   REMARKS
PONTIAC        DRIZZLE   54  53  97 SW14      29.87R
BLOOMINGTON    CLOUDY    51  49  92 SW12G20   29.89R
DECATUR        CLOUDY    56  49  77 SW12      29.90R
PEORIA         CLOUDY    51  48  89 W8        29.88R
LACON*         CLOUDY    51  48  92 SW7       29.87R
LINCOLN*       CLOUDY    54  51  89 W6        29.90R
SPRINGFIELD    CLOUDY    56  50  80 W14       29.91R
TAYLORVILLE    NOT AVBL
$$

ILZ033-039-045-046-055>057-062-063-270000-
EAST-CENTRAL ILLINOIS

CITY           SKY/WX    TMP DP  RH WIND       PRES   REMARKS
CHAMPAIGN      CLOUDY    57  48  72 SW15      29.89R
RANTOUL*       CLOUDY    57  51  81 W14G22    29.88R
MATTOON        CLOUDY    56  49  77 SW10G20   29.90R
PARIS*         CLOUDY    58  50  75 SW10      29.90R
$$

ILZ079-100>102-270000-
SOUTHWEST ILLINOIS

CITY           SKY/WX    TMP DP  RH WIND       PRES   REMARKS
ALTON          MOSUNNY   59  50  72 W10       29.92R
BELLEVILLE     PTSUNNY   60  51  70 SW3       29.92R
CAHOKIA*       MOSUNNY   62  49  62 SW5       29.91S
SPARTA*        MOSUNNY   61  49  62 SW6       29.94R
$$

ILZ064>066-069>071-074>076-080>082-084>086-088>090-092>094-270000-
SOUTH-CENTRAL ILLINOIS

CITY           SKY/WX    TMP DP  RH WIND       PRES   REMARKS
CARBONDALE     CLOUDY    61  49  64 S9        29.94R
CAIRO*         SUNNY     63  52  67 W8        29.95R
EFFINGHAM*     CLOUDY    57  51  78 SW10      29.95R
MARION         PTSUNNY   63  48  59 SW8       29.96R
MT. VERNON     CLOUDY    60  50  69 SW10      29.94R
CENTRALIA*     CLOUDY    60  52  75 SW5       29.93R
SALEM*         CLOUDY    60  50  69 W6        29.93S
METROPOLIS*    CLOUDY    64  52  64 W7        29.96R
$$

ILZ067-068-072-073-078-083-087-091-270000-
SOUTHEAST ILLINOIS

CITY           SKY/WX    TMP DP  RH WIND       PRES   REMARKS
LAWRENCEVILLE  LGT RAIN  61  48  62 SW15      29.92R
FLORA*         CLOUDY    60  50  70 W12       29.94R
FAIRFIELD*     CLOUDY    60  49  67 SW6       29.93R
HARRISBURG*    SUNNY     62  50  64 W9        29.95R
ROBINSON*      CLOUDY    59  48  67 SW13      29.92R
CARMI*         MOSUNNY   62  49  61 W14G20    29.94R
$$

ABBREVIATIONS USED IN REMARKS
   TC - TEMPERATURE IN CELSIUS
  WCI - WIND CHILL INDEX
   HX - HEAT INDEX
  VSB - VISIBILITY
$$





USA.gov is the U.S. government's official web portal to all federal, state and local government web resources and services.